Tracking 17938 objects as of 23-February-2017
HD Live streaming from Space Station
objects crossing your sky now

NADEZHDA 3

Track NADEZHDA 3 now!
10-day predictions
NADEZHDA 3 is classified as:


NORAD ID: 21152
Int'l Code: 1991-019A
Perigee: 961.2 km
Apogee: 1,022.0 km
Inclination: 82.9 °
Period: 104.8 minutes
Semi major axis: 7362 km
RCS: 2.4675 m2 (large)
Launch date: March 12, 1991
Source: Commonwealth of Independent States (former USSR) (CIS)
Launch site: PLESETSK MISSILE AND SPACE COMPLEX (PKMTR)
Your satellite tracking list
Your tracking list is empty





NASA's NSSDC Master Catalog

Two Line Element Set (TLE):
1 21152U 91019A   17053.80422490  .00000032  00000-0  17761-4 0  9997
2 21152  82.9281 306.1201 0041324 189.5901 235.9999 13.74215110301244
Source of the keplerian elements: AFSPC